Regional Weather Roundup
Issued by NWS Nashville, TN

Home | Current Version | Previous Version | Text Only | Print | Product List | Glossary On
Versions: 1 2 3 4 5 6 7 8 9 10 11 12 13 14 15 16 17 18 19 20 21 22 23 24 25 26 27 28 29 30 31 32 33 34 35 36 37 38 39 40 41 42 43 44 45 46 47 48 49 50
000
ASUS44 KOHX 180005
RWROHX
MIDDLE TENNESSEE HOURLY WEATHER ROUNDUP
NATIONAL WEATHER SERVICE NASHVILLE TN
700 PM CDT WED SEP 17 2014

NOTE: "FAIR" INDICATES FEW OR NO CLOUDS BELOW 12,000 FEET WITH
NO SIGNIFICANT WEATHER AND/OR OBSTRUCTIONS TO VISIBILITY.

* THESE REPORTS ARE NOT UNDER NWS QUALITY CONTROL AND MAY NOT
  REPORT WEATHER SUCH AS PRECIPITATION AND FOG.


TNZ005>011-023>034-057-059-062>066-078-080-180100
...NORTHERN MIDDLE TENNESSEE...

CITY           SKY/WX    TMP DP  RH WIND       PRES   REMARKS
CLARKSVILLE    PTCLDY    66  56  70 SW6       29.97R
CROSSVILLE     MOCLDY    63  55  75 CALM      30.01S
NASHVILLE      MOCLDY    66  57  72 CALM      29.96R
SMYRNA         MOCLDY    65  57  75 CALM      29.96R
SPARTA         CLEAR     61  59  94 CALM      29.97F
$$
TNZ056-058-060-061-075>077-079-093>097-180100
...SOUTHERN MIDDLE TENNESSEE...

CITY           SKY/WX    TMP DP  RH WIND       PRES   REMARKS
COLUMBIA       CLEAR     68  59  73 CALM      29.97R
FAYETTEVILLE   CLEAR     66  55  68 N5        29.96R
MCMINNVILLE    CLEAR     63  61  94 E8        29.94F
SHELBYVILLE    CLEAR     68  57  68 CALM      29.96R
TULLAHOMA      CLEAR     66  55  68 E5        29.95F
WINCHESTER     CLEAR     68  57  68 E8        29.95F
$$


...KEY TO REMARKS...
VSB - VISIBILITY IN MILES
WCI - WIND CHILL INDEX
HX  - HEAT INDEX




USA.gov is the U.S. government's official web portal to all federal, state and local government web resources and services.